TimeEST,TemperatureF,Dew PointF,Humidity,Sea Level PressureIn,VisibilityMPH,Wind Direction,Wind SpeedMPH,Gust SpeedMPH,PrecipitationIn,Events,Conditions,WindDirDegrees,DateUTC
12:15 AM,48.2,48.2,100,29.96,4.0,Calm,Calm,-,N/A,,Scattered Clouds,0,2012-12-25 05:15:00
12:35 AM,48.2,48.2,100,29.96,1.5,Calm,Calm,-,N/A,,Scattered Clouds,0,2012-12-25 05:35:00
12:55 AM,46.4,46.4,100,29.96,7.0,Calm,Calm,-,N/A,,Scattered Clouds,0,2012-12-25 05:55:00
1:15 AM,46.4,46.4,100,29.95,7.0,Calm,Calm,-,N/A,,Mostly Cloudy,0,2012-12-25 06:15:00
1:35 AM,46.4,46.4,100,29.96,7.0,Calm,Calm,-,N/A,,Mostly Cloudy,0,2012-12-25 06:35:00
1:55 AM,46.4,46.4,100,29.97,10.0,Calm,Calm,-,N/A,,Overcast,0,2012-12-25 06:55:00
2:15 AM,48.2,48.2,100,29.97,10.0,Calm,Calm,-,N/A,,Overcast,0,2012-12-25 07:15:00
2:35 AM,48.2,48.2,100,29.96,10.0,Calm,Calm,-,N/A,,Overcast,0,2012-12-25 07:35:00
2:55 AM,48.2,48.2,100,29.96,10.0,Calm,Calm,-,N/A,,Overcast,0,2012-12-25 07:55:00
3:15 AM,48.2,48.2,100,29.98,10.0,Calm,Calm,-,N/A,,Overcast,0,2012-12-25 08:15:00
3:35 AM,50.0,50.0,100,29.99,7.0,Calm,Calm,-,N/A,,Overcast,0,2012-12-25 08:35:00
3:55 AM,50.0,50.0,100,29.99,7.0,Calm,Calm,-,N/A,,Overcast,0,2012-12-25 08:55:00
4:15 AM,50.0,50.0,100,29.99,7.0,Calm,Calm,-,N/A,,Overcast,0,2012-12-25 09:15:00
4:35 AM,50.0,50.0,100,29.99,5.0,Calm,Calm,-,N/A,,Overcast,0,2012-12-25 09:35:00
4:55 AM,51.8,51.8,100,30.00,4.0,Calm,Calm,-,N/A,,Overcast,0,2012-12-25 09:55:00
5:15 AM,51.8,51.8,100,30.00,2.5,Calm,Calm,-,N/A,,Overcast,0,2012-12-25 10:15:00
5:35 AM,51.8,51.8,100,30.01,3.0,Calm,Calm,-,N/A,,Overcast,0,2012-12-25 10:35:00
5:55 AM,50.0,50.0,100,30.01,2.5,Calm,Calm,-,N/A,,Overcast,0,2012-12-25 10:55:00
6:15 AM,51.8,51.8,100,30.02,2.5,North,3.5,-,N/A,,Overcast,10,2012-12-25 11:15:00
6:35 AM,51.8,51.8,100,30.02,4.0,Calm,Calm,-,N/A,,Overcast,0,2012-12-25 11:35:00
6:55 AM,51.8,51.8,100,30.03,4.0,Calm,Calm,-,N/A,,Overcast,0,2012-12-25 11:55:00
7:15 AM,51.8,51.8,100,30.03,4.0,Calm,Calm,-,N/A,,Overcast,0,2012-12-25 12:15:00
7:35 AM,51.8,51.8,100,30.04,5.0,Calm,Calm,-,N/A,,Overcast,0,2012-12-25 12:35:00
7:55 AM,51.8,51.8,100,30.04,7.0,North,3.5,-,N/A,,Overcast,350,2012-12-25 12:55:00
8:15 AM,51.8,51.8,100,30.06,4.0,Calm,Calm,-,N/A,,Overcast,0,2012-12-25 13:15:00
8:35 AM,51.8,51.8,100,30.07,4.0,North,5.8,-,N/A,,Overcast,360,2012-12-25 13:35:00
8:55 AM,51.8,51.8,100,30.06,3.0,North,4.6,-,N/A,,Overcast,10,2012-12-25 13:55:00
9:15 AM,51.8,51.8,100,30.07,2.0,Calm,Calm,-,N/A,,Overcast,0,2012-12-25 14:15:00
9:35 AM,51.8,51.8,100,30.09,5.0,Calm,Calm,-,N/A,,Overcast,0,2012-12-25 14:35:00
9:55 AM,51.8,51.8,100,30.09,3.0,Calm,Calm,-,N/A,,Overcast,0,2012-12-25 14:55:00
10:15 AM,51.8,51.8,100,30.08,3.0,Calm,Calm,-,N/A,,Overcast,0,2012-12-25 15:15:00
10:35 AM,51.8,51.8,100,30.08,7.0,Calm,Calm,-,N/A,,Overcast,0,2012-12-25 15:35:00
10:55 AM,51.8,51.8,100,30.07,7.0,East,3.5,-,N/A,,Overcast,80,2012-12-25 15:55:00
11:15 AM,53.6,53.6,100,30.07,7.0,Calm,Calm,-,N/A,,Overcast,0,2012-12-25 16:15:00
11:35 AM,53.6,53.6,100,30.06,7.0,ENE,3.5,-,N/A,,Overcast,70,2012-12-25 16:35:00
11:55 AM,53.6,53.6,100,30.05,3.0,Calm,Calm,-,N/A,,Overcast,0,2012-12-25 16:55:00
12:15 PM,53.6,53.6,100,30.04,4.0,NE,4.6,-,N/A,,Overcast,50,2012-12-25 17:15:00
12:35 PM,55.4,53.6,94,30.03,10.0,East,3.5,-,N/A,,Overcast,100,2012-12-25 17:35:00
12:55 PM,53.6,53.6,100,30.02,7.0,NE,3.5,-,N/A,,Overcast,40,2012-12-25 17:55:00
1:15 PM,55.4,53.6,94,30.02,10.0,Calm,Calm,-,N/A,,Overcast,0,2012-12-25 18:15:00
1:35 PM,55.4,53.6,94,30.02,10.0,Calm,Calm,-,N/A,,Overcast,0,2012-12-25 18:35:00
1:55 PM,55.4,53.6,94,30.03,10.0,Calm,Calm,-,N/A,,Overcast,0,2012-12-25 18:55:00
2:15 PM,55.4,53.6,94,30.02,10.0,Calm,Calm,-,N/A,,Overcast,0,2012-12-25 19:15:00
2:35 PM,57.2,53.6,88,30.01,10.0,Calm,Calm,-,N/A,,Overcast,0,2012-12-25 19:35:00
2:55 PM,57.2,53.6,88,30.01,10.0,NNE,3.5,-,N/A,,Overcast,30,2012-12-25 19:55:00
3:35 PM,57.2,55.4,94,30.00,10.0,NNE,3.5,-,N/A,,Overcast,30,2012-12-25 20:35:00
3:55 PM,57.2,55.4,94,29.99,10.0,NNE,6.9,-,N/A,,Overcast,20,2012-12-25 20:55:00
4:15 PM,57.2,55.4,94,29.99,10.0,NNE,3.5,-,N/A,,Mostly Cloudy,30,2012-12-25 21:15:00
4:35 PM,57.2,55.4,94,29.99,10.0,NNE,3.5,-,N/A,,Overcast,20,2012-12-25 21:35:00
4:55 PM,55.4,55.4,100,29.98,10.0,North,4.6,-,N/A,Rain,Light Rain,10,2012-12-25 21:55:00
5:15 PM,55.4,55.4,100,30.00,7.0,North,3.5,-,N/A,Rain,Heavy Rain,350,2012-12-25 22:15:00
5:35 PM,55.4,55.4,100,30.00,1.8,NNE,5.8,-,N/A,Rain,Heavy Rain,20,2012-12-25 22:35:00
6:35 PM,53.6,53.6,100,29.99,10.0,NE,5.8,-,N/A,,Overcast,40,2012-12-25 23:35:00
6:55 PM,53.6,53.6,100,30.01,10.0,NNE,4.6,-,N/A,,Overcast,30,2012-12-25 23:55:00
7:35 PM,55.4,55.4,100,30.03,10.0,Calm,Calm,-,N/A,Rain,Light Rain,0,2012-12-26 00:35:00
7:55 PM,55.4,55.4,100,30.03,7.0,East,5.8,-,N/A,Rain,Rain,80,2012-12-26 00:55:00
8:15 PM,53.6,53.6,100,30.03,7.0,NNE,4.6,-,N/A,Rain,Rain,20,2012-12-26 01:15:00
8:35 PM,53.6,53.6,100,30.02,5.0,ENE,3.5,-,N/A,Rain,Light Rain,60,2012-12-26 01:35:00
8:55 PM,53.6,53.6,100,30.00,7.0,NE,3.5,-,N/A,Rain,Light Rain,50,2012-12-26 01:55:00
9:15 PM,53.6,53.6,100,29.99,7.0,East,4.6,-,N/A,Thunderstorm,Unknown,80,2012-12-26 02:15:00
9:35 PM,53.6,53.6,100,29.98,7.0,ENE,4.6,-,N/A,,Overcast,60,2012-12-26 02:35:00
9:55 PM,53.6,53.6,100,29.98,7.0,ENE,5.8,-,N/A,,Overcast,70,2012-12-26 02:55:00
10:15 PM,53.6,53.6,100,29.98,10.0,Calm,Calm,-,N/A,,Overcast,0,2012-12-26 03:15:00
11:15 PM,53.6,53.6,100,29.96,10.0,ENE,5.8,-,N/A,,Overcast,70,2012-12-26 04:15:00
11:35 PM,53.6,53.6,100,29.94,10.0,ENE,4.6,-,N/A,,Overcast,70,2012-12-26 04:35:00
11:55 PM,53.6,53.6,100,29.93,10.0,ENE,4.6,-,N/A,,Overcast,70,2012-12-26 04:55:00